Regional Weather Roundup
Issued by NWS Northern Indiana

Home | Current Version | Previous Version | Graphics & Text | Print | Product List | Glossary On
Versions: 1 2 3 4 5 6 7 8 9 10 11 12 13 14 15 16 17 18 19 20 21 22 23 24 25 26 27 28 29 30 31 32 33 34 35 36 37 38 39 40 41 42 43 44 45 46 47 48 49 50
383
ASUS43 KIWX 192000
RWRIWX

KIWX WEATHER ROUNDUP
NATIONAL WEATHER SERVICE NORTHERN INDIANA
400 PM EDT THU OCT 19 2017

NOTE: "FAIR" INDICATES FEW OR NO CLOUDS BELOW 12,000 FEET WITH NO
SIGNIFICANT WEATHER AND/OR OBSTRUCTIONS TO VISIBILITY.

* THESE STATIONS ARE NOT UNDER NWS QUALITY CONTROL. THEY ALSO MAY NOT
  REPORT WEATHER SUCH AS PRECIPITATION OR FOG.

INZ001>027-192100-
NORTHERN INDIANA

CITY           SKY/WX    TMP DP  RH WIND       PRES   REMARKS
GARY*          PTSUNNY   66  25  20 NE6       30.19S
MICHIGAN CITY* FAIR      63  37  39 N6        30.19S
LAPORTE*       FAIR      66  32  28 N6        30.19R
KNOX*          FAIR      70  32  24 NW6       30.17S
SOUTH BEND     FAIR      66  29  24 NW6       30.18S
ELKHART*       FAIR      68  30  24 NW12      30.17S
GOSHEN         FAIR      68  35  29 NW8       30.16S
MONTICELLO*    FAIR      74  48  40 W6        30.16S
WARSAW*        FAIR      70  41  35 W7        30.17R
AUBURN*        FAIR      70  39  32 W7        30.16S
FORT WAYNE     FAIR      72  49  44 W10       30.16S
PERU/GRISSOM   FAIR      73  51  46 W6        30.16F

$$
INZ028>050-192100-
CENTRAL INDIANA

CITY           SKY/WX    TMP DP  RH WIND       PRES   REMARKS
LAFAYETTE      FAIR      72  53  51 W8        30.16F
KOKOMO*        FAIR      72  52  49 W8        30.18S
MUNCIE*        FAIR      74  49  41 SW9       30.17F
INDIANAPOLIS   FAIR      74  51  44 SW8       30.18S

$$
MIZ043>046-050>051-056>058-064>065-071>073-077>080-192100-
SOUTHWEST LOWER MICHIGAN

CITY           SKY/WX    TMP DP  RH WIND       PRES   REMARKS
BATTLE CREEK   FAIR      66  28  24 W12       30.15S
BENTON HARBOR  FAIR      62  33  33 VRB5      30.18S
COLDWATER*     FAIR      69  34  27 W10G16    30.15R
HILLSDALE*     FAIR      68  34  28 W14       30.14R
HOLLAND        FAIR      63  36  36 W12       30.17S
GRAND RAPIDS   PTSUNNY   65  32  29 W12G21    30.14S
KALAMAZOO      FAIR      66  23  19 W12       30.16S
STURGIS*       FAIR      69  32  26 W8        30.15R
THREE RIVERS*  FAIR      68  33  26 W8        30.16S

$$
OHZ001>008-015>018-024>025-192100-
NORTHWEST OHIO

CITY           SKY/WX    TMP DP  RH WIND       PRES   REMARKS
DEFIANCE       FAIR      70  44  39 SW8       30.14S
FINDLAY        FAIR      73  49  42 W16       30.13F
TOLEDO EXPRESS FAIR      73  43  33 W12       30.11S
TOLEDO METCALF FAIR      72  48  42 SW16      30.12S
LIMA           FAIR      72  50  45 W13       30.15S

$$
AND FOR LAKE MICHIGAN COASTAL AND OPEN LAKE BUOY OBSERVATIONS

STATION/POSITION TEMP    WIND        PRES    VSBY  WAVE
                 AIR SEA DIR/SP/G                  HT/PER
                 (F)     (DEG/KT/KT) (MB)    (MI)  (FT/S)
CALUMET HARBOR    61      50/  5/  7 1021.3F
MICHIGAN CITY     65     350/  5/  5   N/A
BURNS HARBOR      60      20/  5/  6 1022.7S
SAINT JOSEPH      61     320/  5/  6 1022.4
SOUTH LAKE BUOY   58 61  300/  6/  8 1022.1          2/ 4
4 MI NW BRIDGMAN  60 59  350/  4/  6 1022.4S         2/ 4
MICHIGAN CITY     60 59  360/  2/  4   N/A           1/ 4

$$
&&




USA.gov is the U.S. government's official web portal to all federal, state and local government web resources and services.